Weather History for Ft Lauderdale, FL

Change the Weather History Date:

Friday, March 9, 2012

  Actual Average Record
Temperature  
Mean Temperature 77 °F 72 °F  
Max Temperature 81 °F 79 °F 88 °F (1991)
Min Temperature 73 °F 65 °F 35 °F (1914)
Degree Days  
Heating Degree Days 0 0  
Month to date heating degree days 0 7  
Since 1 July heating degree days 65 109  
Cooling Degree Days 12 8  
Month to date cooling degree days 88 68  
Year to date cooling degree days 506 424  
Growing Degree Days 27 (Base 50)    
Moisture  
Dew Point 68 °F    
Average Humidity 75    
Maximum Humidity 87    
Minimum Humidity 62    
Precipitation  
Precipitation T in 0.12 in 4.10 in (1970)
Month to date precipitation 0.49 0.87  
Year to date precipitation 2.14 7.46  
Snow  
Snow 0.00 in - - ()
Month to date snowfall 0.0  
Since 1 July snowfall 0.0  
Snow Depth 0.00 in    
Sea Level Pressure  
Sea Level Pressure 30.14 in    
Wind  
Wind Speed 10 mph (SE)    
Max Wind Speed 20 mph    
Max Gust Speed 26 mph    
Visibility 10 miles    
Events Rain    
T = Trace of Precipitation, MM = Missing Value Source: NWS Daily Summary

Daily Weather History Graph

Daily Weather History Graph

Search for Another Location

Airport:

Trip Planner

Search our weather history database for the weather conditions in past years. The results will help you decide how hot, cold, wet, or windy it might be!

Date:

Astronomy

Mar. 09, 2012 Rise Set
Actual Time 6:35 AM EST 6:26 PM EST
Civil Twilight 6:12 AM EST 6:49 PM EST
Nautical Twilight 5:45 AM EST 7:16 PM EST
Astronomical Twilight 5:19 AM EST 7:43 PM EST
Moon 8:06 PM EST (3/9) 7:07 AM EST (3/9)
Length of Visible Light 12h 37m
Length of Day
11h 51m
Full, 98% of the Moon is Illuminated
Mar 9
Full
Mar 14
Last Quarter
Mar 22
New
Mar 30
First Quarter
Apr 6
Full

Hourly Weather History & Observations

Time (EST) Temp. Heat Index Dew Point Humidity Pressure Visibility Wind Dir Wind Speed Gust Speed Precip Events Conditions
12:53 AM 73.9 °F - 66.0 °F 76% 30.17 in 10.0 mi ESE 15.0 mph - N/A   Mostly Cloudy
1:53 AM 73.0 °F - 66.9 °F 81% 30.13 in 10.0 mi ESE 13.8 mph - N/A   Scattered Clouds
2:53 AM 73.9 °F - 66.9 °F 79% 30.12 in 10.0 mi ESE 11.5 mph - N/A   Mostly Cloudy
3:53 AM 73.0 °F - 66.9 °F 81% 30.11 in 10.0 mi ESE 8.1 mph 18.4 mph N/A   Mostly Cloudy
4:53 AM 73.0 °F - 66.9 °F 81% 30.12 in 10.0 mi ESE 9.2 mph - N/A   Mostly Cloudy
5:19 AM 73.4 °F - 66.2 °F 78% 30.12 in 9.0 mi ESE 9.2 mph - 0.00 in Rain Light Rain
5:28 AM 73.4 °F - 68.0 °F 83% 30.12 in 10.0 mi ESE 10.4 mph - 0.00 in Rain Light Rain
5:53 AM 73.0 °F - 66.9 °F 81% 30.13 in 10.0 mi ESE 11.5 mph - 0.00 in   Mostly Cloudy
6:13 AM 73.4 °F - 66.2 °F 78% 30.14 in 10.0 mi ESE 11.5 mph - N/A   Mostly Cloudy
6:34 AM 73.4 °F - 66.2 °F 78% 30.15 in 10.0 mi ESE 9.2 mph - 0.00 in   Mostly Cloudy
6:53 AM 73.9 °F - 66.9 °F 79% 30.16 in 10.0 mi ESE 10.4 mph - 0.00 in   Mostly Cloudy
7:53 AM 75.0 °F - 66.9 °F 76% 30.17 in 10.0 mi ESE 15.0 mph - N/A   Mostly Cloudy
8:53 AM 75.9 °F - 68.0 °F 76% 30.19 in 10.0 mi ESE 17.3 mph 25.3 mph N/A   Mostly Cloudy
9:53 AM 78.1 °F - 68.0 °F 71% 30.19 in 10.0 mi ESE 16.1 mph 21.9 mph 0.00 in   Mostly Cloudy
10:53 AM 79.0 °F - 68.0 °F 69% 30.20 in 10.0 mi SE 15.0 mph - 0.00 in   Mostly Cloudy
11:53 AM 80.1 °F 82.7 °F 68.0 °F 67% 30.19 in 10.0 mi SE 17.3 mph - N/A   Scattered Clouds
12:53 PM 81.0 °F 83.8 °F 68.0 °F 65% 30.16 in 10.0 mi SE 16.1 mph - N/A   Scattered Clouds
1:53 PM 80.1 °F 82.3 °F 66.9 °F 64% 30.14 in 10.0 mi SE 12.7 mph - N/A   Scattered Clouds
2:53 PM 79.0 °F - 66.9 °F 66% 30.12 in 10.0 mi SE 12.7 mph - N/A   Scattered Clouds
3:53 PM 79.0 °F - 68.0 °F 69% 30.11 in 10.0 mi SE 13.8 mph - N/A   Scattered Clouds
4:53 PM 78.1 °F - 68.0 °F 71% 30.11 in 10.0 mi SE 10.4 mph - N/A   Partly Cloudy
5:53 PM 75.9 °F - 68.0 °F 76% 30.12 in 10.0 mi SE 5.8 mph - N/A   Partly Cloudy
6:53 PM 75.0 °F - 68.0 °F 79% 30.11 in 10.0 mi SE 5.8 mph - N/A   Partly Cloudy
7:53 PM 73.9 °F - 68.0 °F 82% 30.12 in 10.0 mi SE 4.6 mph - N/A   Partly Cloudy
8:53 PM 73.9 °F - 69.1 °F 85% 30.14 in 10.0 mi SE 3.5 mph - N/A   Clear
9:53 PM 73.9 °F - 68.0 °F 82% 30.16 in 10.0 mi Calm Calm - N/A   Partly Cloudy
10:53 PM 73.9 °F - 69.1 °F 85% 30.17 in 10.0 mi Calm Calm - N/A   Scattered Clouds
11:53 PM 73.9 °F - 69.1 °F 85% 30.15 in 10.0 mi Calm Calm - N/A   Scattered Clouds